contact:dominique.lefevre@mio.osupytheas.fr, maurice.libes@osupytheas.fr, didier.mallarino@osupytheas.fr
Project:EMSO http://www.emso-fr.org/EMSO-France
Depth: 2436.0 m
Title:EMSO Ligure Ouest : Data MII capteur MICROCAT
DateTime_Computer,Latitude,Longitude,Temperature,Conductivity,Pressure,DateTime_Instrument
DateTime_Computer,Latitude,Longitude,degC,S m-1,dbar,DateTime_Instrument
2023-10-09T00:01:03Z,42.805,6.029,13.3055,4.60119,2470.707,2023-10-09T02:03:27Z
2023-10-09T00:04:06Z,42.805,6.029,13.3054,4.60117,2470.693,2023-10-09T02:06:30Z
2023-10-09T00:07:09Z,42.805,6.029,13.3060,4.60112,2470.707,2023-10-09T02:09:33Z
2023-10-09T00:10:12Z,42.805,6.029,13.3043,4.60102,2470.717,2023-10-09T02:12:36Z
2023-10-09T00:13:15Z,42.805,6.029,13.3043,4.60114,2470.693,2023-10-09T02:15:39Z
2023-10-09T00:16:18Z,42.805,6.029,13.3052,4.60109,2470.717,2023-10-09T02:18:42Z
2023-10-09T00:19:21Z,42.805,6.029,13.3051,4.60129,2470.73,2023-10-09T02:21:45Z
2023-10-09T00:22:24Z,42.805,6.029,13.3048,4.60112,2470.707,2023-10-09T02:24:48Z
2023-10-09T00:25:27Z,42.805,6.029,13.3043,4.60111,2470.74,2023-10-09T02:27:51Z
2023-10-09T00:28:31Z,42.805,6.029,13.3056,4.60106,2470.693,2023-10-09T02:30:55Z
2023-10-09T00:31:34Z,42.805,6.029,13.3055,4.60110,2470.717,2023-10-09T02:33:58Z
2023-10-09T00:34:37Z,42.805,6.029,13.3054,4.60102,2470.693,2023-10-09T02:37:01Z
2023-10-09T00:37:40Z,42.805,6.029,13.3051,4.60108,2470.717,2023-10-09T02:40:04Z
2023-10-09T00:40:43Z,42.805,6.029,13.3046,4.60109,2470.73,2023-10-09T02:43:07Z
2023-10-09T00:43:46Z,42.805,6.029,13.3047,4.60119,2470.693,2023-10-09T02:46:10Z
2023-10-09T00:46:49Z,42.805,6.029,13.3050,4.60112,2470.717,2023-10-09T02:49:13Z
2023-10-09T00:49:52Z,42.805,6.029,13.3052,4.60108,2470.693,2023-10-09T02:52:16Z
2023-10-09T00:52:55Z,42.805,6.029,13.3048,4.60112,2470.693,2023-10-09T02:55:19Z
2023-10-09T00:55:58Z,42.805,6.029,13.3043,4.60113,2470.73,2023-10-09T02:58:22Z
2023-10-09T00:59:01Z,42.805,6.029,13.3047,4.60119,2470.73,2023-10-09T03:01:25Z
2023-10-09T01:02:04Z,42.805,6.029,13.3042,4.60114,2470.754,2023-10-09T03:04:28Z
2023-10-09T01:05:07Z,42.805,6.029,13.3058,4.60109,2470.74,2023-10-09T03:07:31Z
2023-10-09T01:08:11Z,42.805,6.029,13.3054,4.60113,2470.717,2023-10-09T03:10:35Z
2023-10-09T01:11:14Z,42.805,6.029,13.3040,4.60106,2470.73,2023-10-09T03:13:38Z
2023-10-09T01:14:17Z,42.805,6.029,13.3048,4.60108,2470.717,2023-10-09T03:16:41Z
2023-10-09T01:17:20Z,42.805,6.029,13.3051,4.60109,2470.717,2023-10-09T03:19:44Z
2023-10-09T01:20:23Z,42.805,6.029,13.3051,4.60106,2470.73,2023-10-09T03:22:47Z
2023-10-09T01:23:26Z,42.805,6.029,13.3048,4.60111,2470.717,2023-10-09T03:25:50Z
2023-10-09T01:26:29Z,42.805,6.029,13.3044,4.60114,2470.73,2023-10-09T03:28:53Z
2023-10-09T01:29:32Z,42.805,6.029,13.3067,4.60113,2470.74,2023-10-09T03:31:56Z
2023-10-09T01:32:35Z,42.805,6.029,13.3053,4.60107,2470.74,2023-10-09T03:34:59Z
2023-10-09T01:35:38Z,42.805,6.029,13.3062,4.60119,2470.754,2023-10-09T03:38:02Z
2023-10-09T01:38:41Z,42.805,6.029,13.3046,4.60112,2470.754,2023-10-09T03:41:05Z
2023-10-09T01:41:44Z,42.805,6.029,13.3045,4.60110,2470.73,2023-10-09T03:44:08Z
2023-10-09T01:44:47Z,42.805,6.029,13.3044,4.60105,2470.693,2023-10-09T03:47:11Z
2023-10-09T01:47:51Z,42.805,6.029,13.3041,4.60107,2470.717,2023-10-09T03:50:15Z
2023-10-09T01:50:54Z,42.805,6.029,13.3056,4.60106,2470.73,2023-10-09T03:53:18Z
2023-10-09T01:53:57Z,42.805,6.029,13.3051,4.60121,2470.73,2023-10-09T03:56:21Z
2023-10-09T01:57:00Z,42.805,6.029,13.3051,4.60110,2470.73,2023-10-09T03:59:24Z
2023-10-09T02:00:03Z,42.805,6.029,13.3055,4.60110,2470.693,2023-10-09T04:02:27Z
2023-10-09T02:03:06Z,42.805,6.029,13.3054,4.60106,2470.717,2023-10-09T04:05:30Z
2023-10-09T02:06:09Z,42.805,6.029,13.3048,4.60110,2470.754,2023-10-09T04:08:33Z
2023-10-09T02:09:12Z,42.805,6.029,13.3048,4.60111,2470.73,2023-10-09T04:11:36Z
2023-10-09T02:12:15Z,42.805,6.029,13.3048,4.60110,2470.73,2023-10-09T04:14:39Z
2023-10-09T02:15:18Z,42.805,6.029,13.3042,4.60109,2470.754,2023-10-09T04:17:42Z
2023-10-09T02:18:21Z,42.805,6.029,13.3043,4.60107,2470.717,2023-10-09T04:20:45Z
2023-10-09T02:21:24Z,42.805,6.029,13.3044,4.60107,2470.74,2023-10-09T04:23:48Z
2023-10-09T02:24:28Z,42.805,6.029,13.3044,4.60107,2470.717,2023-10-09T04:26:52Z
2023-10-09T02:27:31Z,42.805,6.029,13.3046,4.60098,2470.74,2023-10-09T04:29:55Z
2023-10-09T02:30:34Z,42.805,6.029,13.3046,4.60112,2470.754,2023-10-09T04:32:58Z
2023-10-09T02:33:37Z,42.805,6.029,13.3041,4.60108,2470.74,2023-10-09T04:36:01Z
2023-10-09T02:36:40Z,42.805,6.029,13.3048,4.60103,2470.717,2023-10-09T04:39:04Z
2023-10-09T02:39:43Z,42.805,6.029,13.3036,4.60106,2470.717,2023-10-09T04:42:07Z
2023-10-09T02:42:46Z,42.805,6.029,13.3048,4.60110,2470.754,2023-10-09T04:45:10Z
2023-10-09T02:45:49Z,42.805,6.029,13.3039,4.60108,2470.717,2023-10-09T04:48:13Z
2023-10-09T02:48:52Z,42.805,6.029,13.3043,4.60107,2470.73,2023-10-09T04:51:16Z
2023-10-09T02:51:55Z,42.805,6.029,13.3053,4.60110,2470.717,2023-10-09T04:54:19Z
2023-10-09T02:54:58Z,42.805,6.029,13.3054,4.60107,2470.717,2023-10-09T04:57:22Z
2023-10-09T02:58:01Z,42.805,6.029,13.3039,4.60113,2470.74,2023-10-09T05:00:25Z
2023-10-09T03:01:04Z,42.805,6.029,13.3049,4.60112,2470.763,2023-10-09T05:03:28Z
2023-10-09T03:04:08Z,42.805,6.029,13.3051,4.60120,2470.763,2023-10-09T05:06:32Z
2023-10-09T03:07:11Z,42.805,6.029,13.3057,4.60116,2470.754,2023-10-09T05:09:35Z
2023-10-09T03:10:14Z,42.805,6.029,13.3046,4.60110,2470.74,2023-10-09T05:12:38Z
2023-10-09T03:13:17Z,42.805,6.029,13.3054,4.60110,2470.777,2023-10-09T05:15:41Z
2023-10-09T03:16:20Z,42.805,6.029,13.3046,4.60110,2470.717,2023-10-09T05:18:44Z
2023-10-09T03:19:23Z,42.805,6.029,13.3047,4.60110,2470.74,2023-10-09T05:21:47Z
2023-10-09T03:22:26Z,42.805,6.029,13.3048,4.60113,2470.707,2023-10-09T05:24:50Z
2023-10-09T03:25:29Z,42.805,6.029,13.3056,4.60110,2470.717,2023-10-09T05:27:53Z
2023-10-09T03:28:32Z,42.805,6.029,13.3047,4.60112,2470.74,2023-10-09T05:30:56Z
2023-10-09T03:31:35Z,42.805,6.029,13.3057,4.60104,2470.73,2023-10-09T05:33:59Z
2023-10-09T03:34:38Z,42.805,6.029,13.3054,4.60110,2470.754,2023-10-09T05:37:02Z
2023-10-09T03:37:41Z,42.805,6.029,13.3051,4.60110,2470.763,2023-10-09T05:40:05Z
2023-10-09T03:40:44Z,42.805,6.029,13.3056,4.60111,2470.74,2023-10-09T05:43:08Z
2023-10-09T03:43:48Z,42.805,6.029,13.3044,4.60111,2470.74,2023-10-09T05:46:12Z
2023-10-09T03:46:51Z,42.805,6.029,13.3053,4.60109,2470.754,2023-10-09T05:49:15Z
2023-10-09T03:49:54Z,42.805,6.029,13.3059,4.60115,2470.754,2023-10-09T05:52:18Z
2023-10-09T03:52:57Z,42.805,6.029,13.3054,4.60115,2470.717,2023-10-09T05:55:21Z
2023-10-09T03:56:00Z,42.805,6.029,13.3048,4.60110,2470.754,2023-10-09T05:58:24Z
2023-10-09T03:59:03Z,42.805,6.029,13.3047,4.60112,2470.73,2023-10-09T06:01:27Z
2023-10-09T04:02:06Z,42.805,6.029,13.3048,4.60116,2470.763,2023-10-09T06:04:30Z
2023-10-09T04:05:09Z,42.805,6.029,13.3052,4.60113,2470.763,2023-10-09T06:07:33Z
2023-10-09T04:08:12Z,42.805,6.029,13.3062,4.60111,2470.74,2023-10-09T06:10:36Z
2023-10-09T04:11:15Z,42.805,6.029,13.3051,4.60109,2470.74,2023-10-09T06:13:39Z
2023-10-09T04:14:18Z,42.805,6.029,13.3053,4.60112,2470.74,2023-10-09T06:16:42Z
2023-10-09T04:17:21Z,42.805,6.029,13.3058,4.60113,2470.754,2023-10-09T06:19:45Z
2023-10-09T04:20:25Z,42.805,6.029,13.3055,4.60119,2470.754,2023-10-09T06:22:49Z
2023-10-09T04:23:28Z,42.805,6.029,13.3056,4.60125,2470.74,2023-10-09T06:25:52Z
2023-10-09T04:26:31Z,42.805,6.029,13.3061,4.60112,2470.777,2023-10-09T06:28:55Z
2023-10-09T04:29:34Z,42.805,6.029,13.3049,4.60122,2470.74,2023-10-09T06:31:58Z
2023-10-09T04:32:37Z,42.805,6.029,13.3061,4.60114,2470.703,2023-10-09T06:35:01Z
2023-10-09T04:35:40Z,42.805,6.029,13.3054,4.60106,2470.74,2023-10-09T06:38:04Z
2023-10-09T04:38:43Z,42.805,6.029,13.3050,4.60112,2470.763,2023-10-09T06:41:07Z
2023-10-09T04:41:46Z,42.805,6.029,13.3051,4.60110,2470.754,2023-10-09T06:44:10Z
2023-10-09T04:44:49Z,42.805,6.029,13.3056,4.60117,2470.754,2023-10-09T06:47:13Z
2023-10-09T04:47:52Z,42.805,6.029,13.3055,4.60114,2470.74,2023-10-09T06:50:16Z
2023-10-09T04:50:55Z,42.805,6.029,13.3049,4.60115,2470.717,2023-10-09T06:53:19Z
2023-10-09T04:53:58Z,42.805,6.029,13.3051,4.60112,2470.73,2023-10-09T06:56:22Z
2023-10-09T04:57:01Z,42.805,6.029,13.3048,4.60114,2470.763,2023-10-09T06:59:25Z
2023-10-09T05:00:04Z,42.805,6.029,13.3048,4.60117,2470.754,2023-10-09T07:02:29Z
2023-10-09T05:03:08Z,42.805,6.029,13.3067,4.60109,2470.754,2023-10-09T07:05:32Z
2023-10-09T05:06:11Z,42.805,6.029,13.3055,4.60116,2470.717,2023-10-09T07:08:35Z
2023-10-09T05:09:14Z,42.805,6.029,13.3065,4.60117,2470.754,2023-10-09T07:11:38Z
2023-10-09T05:12:17Z,42.805,6.029,13.3056,4.60122,2470.73,2023-10-09T07:14:41Z
2023-10-09T05:15:20Z,42.805,6.029,13.3048,4.60116,2470.754,2023-10-09T07:17:44Z
2023-10-09T05:18:23Z,42.805,6.029,13.3061,4.60113,2470.754,2023-10-09T07:20:47Z
2023-10-09T05:21:26Z,42.805,6.029,13.3054,4.60117,2470.74,2023-10-09T07:23:50Z
2023-10-09T05:24:29Z,42.805,6.029,13.3054,4.60112,2470.74,2023-10-09T07:26:53Z
2023-10-09T05:27:32Z,42.805,6.029,13.3046,4.60109,2470.74,2023-10-09T07:29:56Z
2023-10-09T05:30:35Z,42.805,6.029,13.3051,4.60109,2470.754,2023-10-09T07:32:59Z
2023-10-09T05:33:38Z,42.805,6.029,13.3054,4.60115,2470.754,2023-10-09T07:36:02Z
2023-10-09T05:36:41Z,42.805,6.029,13.3054,4.60109,2470.754,2023-10-09T07:39:05Z
2023-10-09T05:39:45Z,42.805,6.029,13.3058,4.60119,2470.74,2023-10-09T07:42:09Z
2023-10-09T05:42:48Z,42.805,6.029,13.3051,4.60111,2470.754,2023-10-09T07:45:12Z
2023-10-09T05:45:51Z,42.805,6.029,13.3059,4.60112,2470.74,2023-10-09T07:48:15Z
2023-10-09T05:48:54Z,42.805,6.029,13.3045,4.60110,2470.73,2023-10-09T07:51:18Z
2023-10-09T05:51:57Z,42.805,6.029,13.3052,4.60110,2470.717,2023-10-09T07:54:21Z
2023-10-09T05:55:00Z,42.805,6.029,13.3051,4.60114,2470.74,2023-10-09T07:57:24Z
2023-10-09T05:58:03Z,42.805,6.029,13.3068,4.60114,2470.74,2023-10-09T08:00:27Z
2023-10-09T06:01:06Z,42.805,6.029,13.3048,4.60113,2470.726,2023-10-09T08:03:30Z
2023-10-09T06:04:09Z,42.805,6.029,13.3056,4.60114,2470.74,2023-10-09T08:06:33Z
2023-10-09T06:07:12Z,42.805,6.029,13.3050,4.60114,2470.754,2023-10-09T08:09:36Z
2023-10-09T06:10:15Z,42.805,6.029,13.3051,4.60113,2470.754,2023-10-09T08:12:39Z
2023-10-09T06:13:18Z,42.805,6.029,13.3061,4.60113,2470.74,2023-10-09T08:15:42Z
2023-10-09T06:16:21Z,42.805,6.029,13.3068,4.60116,2470.754,2023-10-09T08:18:45Z
2023-10-09T06:19:25Z,42.805,6.029,13.3057,4.60112,2470.75,2023-10-09T08:21:49Z
2023-10-09T06:22:28Z,42.805,6.029,13.3066,4.60113,2470.754,2023-10-09T08:24:52Z
2023-10-09T06:25:31Z,42.805,6.029,13.3066,4.60119,2470.754,2023-10-09T08:27:55Z
2023-10-09T06:28:34Z,42.805,6.029,13.3057,4.60115,2470.74,2023-10-09T08:30:58Z
2023-10-09T06:31:37Z,42.805,6.029,13.3063,4.60122,2470.717,2023-10-09T08:34:01Z
2023-10-09T06:34:40Z,42.805,6.029,13.3058,4.60122,2470.74,2023-10-09T08:37:04Z
2023-10-09T06:37:43Z,42.805,6.029,13.3056,4.60117,2470.754,2023-10-09T08:40:07Z
2023-10-09T06:40:46Z,42.805,6.029,13.3052,4.60116,2470.717,2023-10-09T08:43:10Z
2023-10-09T06:43:49Z,42.805,6.029,13.3042,4.60108,2470.73,2023-10-09T08:46:13Z
2023-10-09T06:46:52Z,42.805,6.029,13.3057,4.60105,2470.74,2023-10-09T08:49:16Z
2023-10-09T06:49:55Z,42.805,6.029,13.3058,4.60115,2470.717,2023-10-09T08:52:19Z
2023-10-09T06:52:58Z,42.805,6.029,13.3054,4.60102,2470.74,2023-10-09T08:55:22Z
2023-10-09T06:56:02Z,42.805,6.029,13.3048,4.60110,2470.717,2023-10-09T08:58:26Z
2023-10-09T06:59:05Z,42.805,6.029,13.3043,4.60115,2470.717,2023-10-09T09:01:29Z
2023-10-09T07:02:08Z,42.805,6.029,13.3056,4.60110,2470.74,2023-10-09T09:04:32Z
2023-10-09T07:05:11Z,42.805,6.029,13.3050,4.60110,2470.717,2023-10-09T09:07:35Z
2023-10-09T07:08:14Z,42.805,6.029,13.3046,4.60115,2470.717,2023-10-09T09:10:38Z
2023-10-09T07:11:17Z,42.805,6.029,13.3053,4.60111,2470.73,2023-10-09T09:13:41Z
2023-10-09T07:14:20Z,42.805,6.029,13.3053,4.60123,2470.777,2023-10-09T09:16:44Z
2023-10-09T07:17:23Z,42.805,6.029,13.3058,4.60109,2470.717,2023-10-09T09:19:47Z
2023-10-09T07:20:26Z,42.805,6.029,13.3061,4.60116,2470.717,2023-10-09T09:22:50Z
2023-10-09T07:23:29Z,42.805,6.029,13.3057,4.60117,2470.717,2023-10-09T09:25:53Z
2023-10-09T07:26:32Z,42.805,6.029,13.3048,4.60110,2470.693,2023-10-09T09:28:56Z
2023-10-09T07:29:35Z,42.805,6.029,13.3052,4.60116,2470.73,2023-10-09T09:31:59Z
2023-10-09T07:32:38Z,42.805,6.029,13.3045,4.60114,2470.717,2023-10-09T09:35:02Z
2023-10-09T07:35:42Z,42.805,6.029,13.3048,4.60112,2470.73,2023-10-09T09:38:06Z
2023-10-09T07:38:45Z,42.805,6.029,13.3051,4.60112,2470.693,2023-10-09T09:41:09Z
2023-10-09T07:41:48Z,42.805,6.029,13.3058,4.60103,2470.707,2023-10-09T09:44:12Z
2023-10-09T07:44:51Z,42.805,6.029,13.3042,4.60110,2470.74,2023-10-09T09:47:15Z
2023-10-09T07:47:54Z,42.805,6.029,13.3047,4.60110,2470.693,2023-10-09T09:50:18Z
2023-10-09T07:50:57Z,42.805,6.029,13.3046,4.60108,2470.717,2023-10-09T09:53:21Z
2023-10-09T07:54:00Z,42.805,6.029,13.3047,4.60104,2470.73,2023-10-09T09:56:24Z
2023-10-09T07:57:03Z,42.805,6.029,13.3058,4.60117,2470.74,2023-10-09T09:59:27Z
2023-10-09T08:00:06Z,42.805,6.029,13.3054,4.60119,2470.693,2023-10-09T10:02:30Z
2023-10-09T08:03:09Z,42.805,6.029,13.3056,4.60114,2470.717,2023-10-09T10:05:33Z
2023-10-09T08:06:12Z,42.805,6.029,13.3050,4.60117,2470.693,2023-10-09T10:08:36Z
2023-10-09T08:09:15Z,42.805,6.029,13.3056,4.60114,2470.703,2023-10-09T10:11:39Z
2023-10-09T08:12:18Z,42.805,6.029,13.3058,4.60126,2470.74,2023-10-09T10:14:43Z
2023-10-09T08:15:22Z,42.805,6.029,13.3048,4.60122,2470.717,2023-10-09T10:17:46Z
2023-10-09T08:18:25Z,42.805,6.029,13.3058,4.60142,2470.717,2023-10-09T10:20:49Z
2023-10-09T08:21:28Z,42.805,6.029,13.3056,4.60122,2470.693,2023-10-09T10:23:52Z
2023-10-09T08:24:31Z,42.805,6.029,13.3063,4.60114,2470.693,2023-10-09T10:26:55Z
2023-10-09T08:27:34Z,42.805,6.029,13.3062,4.60113,2470.717,2023-10-09T10:29:58Z
2023-10-09T08:30:36Z,42.805,6.029,13.3063,4.60117,2470.717,2023-10-09T10:33:00Z
2023-10-09T08:33:39Z,42.805,6.029,13.3057,4.60120,2470.754,2023-10-09T10:36:03Z
2023-10-09T08:36:42Z,42.805,6.029,13.3054,4.60116,2470.717,2023-10-09T10:39:06Z
2023-10-09T08:39:45Z,42.805,6.029,13.3051,4.60108,2470.693,2023-10-09T10:42:09Z
2023-10-09T08:42:48Z,42.805,6.029,13.3060,4.60117,2470.754,2023-10-09T10:45:12Z
2023-10-09T08:45:51Z,42.805,6.029,13.3048,4.60119,2470.717,2023-10-09T10:48:15Z
2023-10-09T08:48:54Z,42.805,6.029,13.3063,4.60117,2470.73,2023-10-09T10:51:18Z
2023-10-09T08:51:57Z,42.805,6.029,13.3054,4.60122,2470.693,2023-10-09T10:54:21Z
2023-10-09T08:55:00Z,42.805,6.029,13.3056,4.60110,2470.707,2023-10-09T10:57:24Z
2023-10-09T08:58:03Z,42.805,6.029,13.3058,4.60114,2470.693,2023-10-09T11:00:27Z
2023-10-09T09:01:06Z,42.805,6.029,13.3053,4.60114,2470.73,2023-10-09T11:03:30Z
2023-10-09T09:04:09Z,42.805,6.029,13.3057,4.60108,2470.717,2023-10-09T11:06:33Z
2023-10-09T09:07:12Z,42.805,6.029,13.3064,4.60110,2470.707,2023-10-09T11:09:37Z
2023-10-09T09:10:16Z,42.805,6.029,13.3053,4.60113,2470.717,2023-10-09T11:12:40Z
2023-10-09T09:13:19Z,42.805,6.029,13.3043,4.60118,2470.693,2023-10-09T11:15:43Z
2023-10-09T09:16:22Z,42.805,6.029,13.3049,4.60114,2470.693,2023-10-09T11:18:46Z
2023-10-09T09:19:25Z,42.805,6.029,13.3059,4.60122,2470.717,2023-10-09T11:21:49Z
2023-10-09T09:22:28Z,42.805,6.029,13.3055,4.60126,2470.693,2023-10-09T11:24:52Z
2023-10-09T09:25:31Z,42.805,6.029,13.3059,4.60119,2470.717,2023-10-09T11:27:55Z
2023-10-09T09:28:34Z,42.805,6.029,13.3077,4.60125,2470.707,2023-10-09T11:30:58Z
2023-10-09T09:31:37Z,42.805,6.029,13.3053,4.60121,2470.73,2023-10-09T11:34:01Z
2023-10-09T09:34:40Z,42.805,6.029,13.3068,4.60115,2470.707,2023-10-09T11:37:04Z
2023-10-09T09:37:43Z,42.805,6.029,13.3055,4.60122,2470.717,2023-10-09T11:40:07Z
2023-10-09T09:40:46Z,42.805,6.029,13.3071,4.60119,2470.707,2023-10-09T11:43:10Z
2023-10-09T09:43:50Z,42.805,6.029,13.3064,4.60120,2470.693,2023-10-09T11:46:14Z
2023-10-09T09:46:53Z,42.805,6.029,13.3051,4.60114,2470.707,2023-10-09T11:49:17Z
2023-10-09T09:49:56Z,42.805,6.029,13.3075,4.60105,2470.693,2023-10-09T11:52:20Z
2023-10-09T09:52:59Z,42.805,6.029,13.3058,4.60121,2470.693,2023-10-09T11:55:23Z
2023-10-09T09:56:02Z,42.805,6.029,13.3055,4.60118,2470.693,2023-10-09T11:58:26Z
2023-10-09T09:59:05Z,42.805,6.029,13.3059,4.60127,2470.693,2023-10-09T12:01:29Z
2023-10-09T10:02:08Z,42.805,6.029,13.3058,4.60109,2470.73,2023-10-09T12:04:32Z
2023-10-09T10:05:11Z,42.805,6.029,13.3058,4.60126,2470.73,2023-10-09T12:07:35Z
2023-10-09T10:08:14Z,42.805,6.029,13.3065,4.60120,2470.717,2023-10-09T12:10:38Z
2023-10-09T10:11:17Z,42.805,6.029,13.3056,4.60113,2470.717,2023-10-09T12:13:41Z
2023-10-09T10:14:20Z,42.805,6.029,13.3055,4.60117,2470.693,2023-10-09T12:16:44Z
2023-10-09T10:17:23Z,42.805,6.029,13.3054,4.60112,2470.754,2023-10-09T12:19:47Z
2023-10-09T10:20:26Z,42.805,6.029,13.3053,4.60119,2470.693,2023-10-09T12:22:51Z
2023-10-09T10:23:30Z,42.805,6.029,13.3051,4.60130,2470.693,2023-10-09T12:25:54Z
2023-10-09T10:26:33Z,42.805,6.029,13.3051,4.60114,2470.717,2023-10-09T12:28:57Z
2023-10-09T10:29:36Z,42.805,6.029,13.3051,4.60114,2470.693,2023-10-09T12:32:00Z
2023-10-09T10:32:39Z,42.805,6.029,13.3049,4.60121,2470.73,2023-10-09T12:35:03Z
2023-10-09T10:35:42Z,42.805,6.029,13.3054,4.60114,2470.73,2023-10-09T12:38:06Z
2023-10-09T10:38:45Z,42.805,6.029,13.3058,4.60123,2470.693,2023-10-09T12:41:09Z
2023-10-09T10:41:48Z,42.805,6.029,13.3067,4.60121,2470.717,2023-10-09T12:44:12Z
2023-10-09T10:44:51Z,42.805,6.029,13.3059,4.60119,2470.73,2023-10-09T12:47:15Z
2023-10-09T10:47:54Z,42.805,6.029,13.3064,4.60122,2470.693,2023-10-09T12:50:18Z
2023-10-09T10:50:57Z,42.805,6.029,13.3065,4.60122,2470.754,2023-10-09T12:53:21Z
2023-10-09T10:54:00Z,42.805,6.029,13.3058,4.60120,2470.73,2023-10-09T12:56:24Z
2023-10-09T10:57:03Z,42.805,6.029,13.3061,4.60112,2470.717,2023-10-09T12:59:28Z
2023-10-09T11:00:07Z,42.805,6.029,13.3050,4.60113,2470.717,2023-10-09T13:02:31Z
2023-10-09T11:03:10Z,42.805,6.029,13.3064,4.60119,2470.74,2023-10-09T13:05:34Z
2023-10-09T11:06:13Z,42.805,6.029,13.3061,4.60128,2470.73,2023-10-09T13:08:37Z
2023-10-09T11:09:16Z,42.805,6.029,13.3070,4.60120,2470.73,2023-10-09T13:11:40Z
2023-10-09T11:12:19Z,42.805,6.029,13.3066,4.60122,2470.717,2023-10-09T13:14:43Z
2023-10-09T11:15:22Z,42.805,6.029,13.3062,4.60130,2470.707,2023-10-09T13:17:46Z
2023-10-09T11:18:25Z,42.805,6.029,13.3054,4.60123,2470.717,2023-10-09T13:20:49Z
2023-10-09T11:21:28Z,42.805,6.029,13.3060,4.60129,2470.73,2023-10-09T13:23:52Z
2023-10-09T11:24:31Z,42.805,6.029,13.3078,4.60112,2470.707,2023-10-09T13:26:55Z
2023-10-09T11:27:34Z,42.805,6.029,13.3068,4.60123,2470.67,2023-10-09T13:29:58Z
2023-10-09T11:30:37Z,42.805,6.029,13.3069,4.60124,2470.707,2023-10-09T13:33:01Z
2023-10-09T11:33:40Z,42.805,6.029,13.3064,4.60125,2470.717,2023-10-09T13:36:05Z
2023-10-09T11:36:44Z,42.805,6.029,13.3063,4.60114,2470.717,2023-10-09T13:39:08Z
2023-10-09T11:39:47Z,42.805,6.029,13.3059,4.60109,2470.717,2023-10-09T13:42:11Z
2023-10-09T11:42:50Z,42.805,6.029,13.3067,4.60110,2470.707,2023-10-09T13:45:14Z
2023-10-09T11:45:53Z,42.805,6.029,13.3069,4.60120,2470.717,2023-10-09T13:48:17Z
2023-10-09T11:48:56Z,42.805,6.029,13.3066,4.60122,2470.74,2023-10-09T13:51:20Z
2023-10-09T11:51:59Z,42.805,6.029,13.3057,4.60114,2470.707,2023-10-09T13:54:23Z
2023-10-09T11:55:02Z,42.805,6.029,13.3056,4.60115,2470.74,2023-10-09T13:57:26Z
2023-10-09T11:58:05Z,42.805,6.029,13.3061,4.60123,2470.754,2023-10-09T14:00:29Z
2023-10-09T12:01:08Z,42.805,6.029,13.3060,4.60119,2470.717,2023-10-09T14:03:32Z
2023-10-09T12:04:11Z,42.805,6.029,13.3064,4.60112,2470.754,2023-10-09T14:06:35Z
2023-10-09T12:07:14Z,42.805,6.029,13.3049,4.60111,2470.73,2023-10-09T14:09:38Z
2023-10-09T12:10:18Z,42.805,6.029,13.3050,4.60128,2470.754,2023-10-09T14:12:42Z
2023-10-09T12:13:21Z,42.805,6.029,13.3066,4.60130,2470.717,2023-10-09T14:15:45Z
2023-10-09T12:16:24Z,42.805,6.029,13.3069,4.60117,2470.74,2023-10-09T14:18:48Z
2023-10-09T12:19:27Z,42.805,6.029,13.3061,4.60112,2470.763,2023-10-09T14:21:51Z
2023-10-09T12:22:30Z,42.805,6.029,13.3064,4.60123,2470.717,2023-10-09T14:24:54Z
2023-10-09T12:25:33Z,42.805,6.029,13.3067,4.60123,2470.777,2023-10-09T14:27:57Z
2023-10-09T12:28:36Z,42.805,6.029,13.3051,4.60109,2470.74,2023-10-09T14:31:00Z
2023-10-09T12:31:38Z,42.805,6.029,13.3077,4.60117,2470.717,2023-10-09T14:34:02Z
2023-10-09T12:34:41Z,42.805,6.029,13.3058,4.60121,2470.754,2023-10-09T14:37:05Z
2023-10-09T12:37:44Z,42.805,6.029,13.3075,4.60131,2470.717,2023-10-09T14:40:08Z
2023-10-09T12:40:47Z,42.805,6.029,13.3051,4.60116,2470.73,2023-10-09T14:43:11Z
2023-10-09T12:43:50Z,42.805,6.029,13.3067,4.60118,2470.763,2023-10-09T14:46:14Z
2023-10-09T12:46:53Z,42.805,6.029,13.3055,4.60115,2470.73,2023-10-09T14:49:17Z
2023-10-09T12:49:56Z,42.805,6.029,13.3053,4.60116,2470.73,2023-10-09T14:52:20Z
2023-10-09T12:52:59Z,42.805,6.029,13.3057,4.60117,2470.754,2023-10-09T14:55:23Z
2023-10-09T12:56:02Z,42.805,6.029,13.3054,4.60119,2470.74,2023-10-09T14:58:26Z
2023-10-09T12:59:06Z,42.805,6.029,13.3061,4.60119,2470.754,2023-10-09T15:01:30Z
2023-10-09T13:02:09Z,42.805,6.029,13.3051,4.60116,2470.74,2023-10-09T15:04:33Z
2023-10-09T13:05:12Z,42.805,6.029,13.3057,4.60114,2470.74,2023-10-09T15:07:36Z
2023-10-09T13:08:15Z,42.805,6.029,13.3056,4.60105,2470.74,2023-10-09T15:10:39Z
2023-10-09T13:11:18Z,42.805,6.029,13.3051,4.60119,2470.754,2023-10-09T15:13:42Z
2023-10-09T13:14:21Z,42.805,6.029,13.3054,4.60112,2470.74,2023-10-09T15:16:45Z
2023-10-09T13:17:24Z,42.805,6.029,13.3062,4.60117,2470.763,2023-10-09T15:19:48Z
2023-10-09T13:20:27Z,42.805,6.029,13.3053,4.60114,2470.73,2023-10-09T15:22:51Z
2023-10-09T13:23:30Z,42.805,6.029,13.3053,4.60119,2470.754,2023-10-09T15:25:54Z
2023-10-09T13:26:33Z,42.805,6.029,13.3058,4.60114,2470.74,2023-10-09T15:28:57Z
2023-10-09T13:29:36Z,42.805,6.029,13.3054,4.60114,2470.763,2023-10-09T15:32:00Z
2023-10-09T13:32:39Z,42.805,6.029,13.3054,4.60119,2470.74,2023-10-09T15:35:03Z
2023-10-09T13:35:42Z,42.805,6.029,13.3058,4.60108,2470.777,2023-10-09T15:38:07Z
2023-10-09T13:38:46Z,42.805,6.029,13.3048,4.60117,2470.763,2023-10-09T15:41:10Z
2023-10-09T13:41:49Z,42.805,6.029,13.3051,4.60122,2470.787,2023-10-09T15:44:13Z
2023-10-09T13:44:52Z,42.805,6.029,13.3061,4.60119,2470.773,2023-10-09T15:47:16Z
2023-10-09T13:47:55Z,42.805,6.029,13.3061,4.60110,2470.754,2023-10-09T15:50:19Z
2023-10-09T13:50:58Z,42.805,6.029,13.3057,4.60110,2470.763,2023-10-09T15:53:22Z
2023-10-09T13:54:01Z,42.805,6.029,13.3051,4.60123,2470.777,2023-10-09T15:56:25Z
2023-10-09T13:57:04Z,42.805,6.029,13.3053,4.60120,2470.763,2023-10-09T15:59:28Z
2023-10-09T14:00:07Z,42.805,6.029,13.3056,4.60123,2470.763,2023-10-09T16:02:31Z
2023-10-09T14:03:10Z,42.805,6.029,13.3061,4.60119,2470.787,2023-10-09T16:05:34Z
2023-10-09T14:06:13Z,42.805,6.029,13.3056,4.60119,2470.777,2023-10-09T16:08:37Z
2023-10-09T14:09:16Z,42.805,6.029,13.3052,4.60125,2470.8,2023-10-09T16:11:40Z
2023-10-09T14:12:19Z,42.805,6.029,13.3064,4.60123,2470.8,2023-10-09T16:14:44Z
2023-10-09T14:15:23Z,42.805,6.029,13.3061,4.60114,2470.8,2023-10-09T16:17:47Z
2023-10-09T14:18:26Z,42.805,6.029,13.3062,4.60122,2470.763,2023-10-09T16:20:50Z
2023-10-09T14:21:29Z,42.805,6.029,13.3057,4.60122,2470.777,2023-10-09T16:23:53Z
2023-10-09T14:24:32Z,42.805,6.029,13.3056,4.60117,2470.81,2023-10-09T16:26:56Z
2023-10-09T14:27:35Z,42.805,6.029,13.3061,4.60118,2470.787,2023-10-09T16:29:59Z
2023-10-09T14:30:38Z,42.805,6.029,13.3057,4.60125,2470.787,2023-10-09T16:33:02Z
2023-10-09T14:33:41Z,42.805,6.029,13.3057,4.60127,2470.763,2023-10-09T16:36:05Z
2023-10-09T14:36:44Z,42.805,6.029,13.3058,4.60119,2470.763,2023-10-09T16:39:08Z
2023-10-09T14:39:47Z,42.805,6.029,13.3056,4.60121,2470.787,2023-10-09T16:42:11Z
2023-10-09T14:42:50Z,42.805,6.029,13.3056,4.60121,2470.8,2023-10-09T16:45:14Z
2023-10-09T14:45:53Z,42.805,6.029,13.3068,4.60118,2470.81,2023-10-09T16:48:17Z
2023-10-09T14:48:56Z,42.805,6.029,13.3060,4.60114,2470.833,2023-10-09T16:51:20Z
2023-10-09T14:52:00Z,42.805,6.029,13.3055,4.60119,2470.833,2023-10-09T16:54:24Z
2023-10-09T14:55:03Z,42.805,6.029,13.3052,4.60117,2470.824,2023-10-09T16:57:27Z
2023-10-09T14:58:06Z,42.805,6.029,13.3065,4.60111,2470.824,2023-10-09T17:00:30Z
2023-10-09T15:01:09Z,42.805,6.029,13.3061,4.60124,2470.787,2023-10-09T17:03:33Z